AirNav   Duncan Aviation - Near you to keep you flying
 
 756 users online  

KVCB Nut Tree Airport
Vacaville, California, USA

GOING TO VACAVILLE?


FAA INFORMATION EFFECTIVE 01 DECEMBER 2022

Location

FAA Identifier: VCB
Lat/Long: 38-22-41.6000N 121-57-40.3000W
38-22.693333N 121-57.671667W
38.3782222,-121.9611944
(estimated)
Elevation: 116.9 ft. / 35.6 m (surveyed)
Variation: 13E (2020)
From city: 2 miles NE of VACAVILLE, CA
Time zone: UTC -8 (UTC -7 during Daylight Saving Time)
Zip code: 95688

Airport Operations

Airport use: Open to the public
Control tower: no
ARTCC: OAKLAND CENTER
FSS: RANCHO MURIETA FLIGHT SERVICE STATION
NOTAMs facility: VCB (NOTAM-D service available)
Attendance: MON-FRI 1400-0100Z++
Wind indicator: lighted
Segmented circle: yes
Lights: AFT 2200 ACTVT MIRL & PARALLEL TWY LGTS RY 02/20; PAPI & REIL RYS 02 & 20 - CTAF.
Beacon: white-green (lighted land airport)
Operates sunset to sunrise.

Airport Communications

CTAF: 122.85
WX ASOS: 134.75 (707-448-1594)
TRAVIS APPROACH: 128.4
TRAVIS DEPARTURE: 128.4
WX AWOS-3 at EDU (12 nm NE): 119.025 (530-754-6839)
WX AWOS-3P at DWA (13 nm N): 125.775 (530-750-2759)
WX AWOS-AV at O88 (16 nm SE): 127.075 (707-374-5396)
WX ASOS at APC (18 nm SW): PHONE 707-252-7916

Nearby radio navigation aids

VOR radial/distance  VOR name  Freq  Var
SACr241/19.7SACRAMENTO VORTAC115.2017E
CCRr354/20.4CONCORD VOR/DME117.0017E
SGDr041/22.8SCAGGS ISLAND VORTAC112.1017E
MCCr219/31.4MC CLELLAN VOR/DME109.2017E

Airport Services

Fuel available: 100LL JET-A
Parking: tiedowns
Airframe service: MAJOR
Powerplant service: MAJOR
Bottled oxygen: NONE
Bulk oxygen: NONE

Runway Information

Runway 2/20

Dimensions: 4700 x 75 ft. / 1433 x 23 m
Surface: asphalt, in good condition
Weight bearing capacity: 
Single wheel: 30.0
Runway edge lights: medium intensity
RUNWAY 2  RUNWAY 20
Latitude: 38-22.372078N38-23.016052N
Longitude: 121-57.945188W121-57.398928W
Elevation: 115.8 ft.111.7 ft.
Traffic pattern: leftright
Runway heading: 021 magnetic, 034 true201 magnetic, 214 true
Markings: nonprecision, in good conditionnonprecision, in good condition
Visual slope indicator: 2-light PAPI on left (3.75 degrees glide path)2-light PAPI on left (3.75 degrees glide path)
Runway end identifier lights: yesyes
Touchdown point: yes, no lightsyes, no lights
Obstructions: 52 ft. tree, 1450 ft. from runway, 200 ft. right of centerline, 25:1 slope to clearnone

Airport Ownership and Management from official FAA records

Ownership: Publicly-owned
Owner: COUNTY OF SOLANO
675 TEXAS ST
FAIRFIELD, CA 94533
Phone 707-784-6100
Manager: DUSTIN LENO
301 COUNTY AIRPORT ROAD, SUITE 205
VACAVILLE, CA 95688
Phone 707-469-4600

Airport Operational Statistics

Aircraft based on the field: 86
Single engine airplanes: 82
Multi engine airplanes: 4
  • INCLUDES 2 GYROPLANES.
    
Aircraft operations: avg 238/day *
57% transient general aviation
40% local general aviation
2% air taxi
* for 12-month period ending 21 March 2022

Additional Remarks

NO TURNS TO XW BLW 800 FT MSL; RMN W OF INSTA HWY FOR RWY 20, NOISE SENSITIVE AREA W OF ARPT.
TWY LGTS ON PARL TWY ONLY.
RWY 02 CALM WIND RWY.
FOR CD CTC OAKLAND ARTCC AT 510-745-3380.

Instrument Procedures

NOTE: All procedures below are presented as PDF files. If you need a reader for these files, you should download the free Adobe Reader.

NOT FOR NAVIGATION. Please procure official charts for flight.
FAA instrument procedures published for use from 01 December 2022 at 0901Z to 29 December 2022 at 0900z.

 
IAPs - Instrument Approach Procedures
RNAV (GPS) RWY 20   download (217KB)
VOR-A   download (173KB)
NOTE: Special Alternate Minimums apply   download (133KB)
 
Departure Procedures
SOKOY THREE   download (148KB)
NOTE: Special Take-Off Minimums/Departure Procedures apply   download (208KB)

Other nearby airports with instrument procedures:

KSUU - Travis Air Force Base (7 nm S)
KEDU - University Airport (12 nm NE)
KDWA - Yolo County Airport (13 nm N)
O88 - Rio Vista Municipal Airport (16 nm SE)
KAPC - Napa County Airport (18 nm SW)
O41 - Watts-Woodland Airport (18 nm N)
 
Loc | Ops | Rwys | IFR | FBO | Links
Com | Nav | Svcs | Stats | Notes

Sonoma Jet Center
 
Area around KVCB (Nut Tree Airport)
 
Road maps at: MapQuest Bing Google
 
Aerial photo
WARNING: Photo may not be current or correct
Aerial photo of KVCB (Nut Tree Airport)
Photo by Jan Sears
Photo taken 24-Feb-2019
looking west northwest at 3500 feet.

Do you have a better or more recent aerial photo of Nut Tree Airport that you would like to share? If so, please send us your photo.

 
Sectional chart

 
Airport diagram
CAUTION: Diagram may not be current
Diagram of KVCB (Nut Tree Airport)
 
Airport distance calculator
Flying to Nut Tree Airport? Find the distance to fly.

From to KVCB

Sunrise and sunset
Times for 08-Dec-2022
 Local
(UTC-8)
 Zulu
(UTC)
Morning civil twilight06:4414:44
Sunrise07:1415:14
Sunset16:4600:46
Evening civil twilight17:1601:16

Current date and time
Zulu (UTC)  08-Dec-2022 11:55:41
Local (UTC-8)  08-Dec-2022 03:55:41
 
METAR
KVCB 081135Z AUTO 00000KT 1SM BR VV002 01/01 A3030 RMK AO2 VIS 1/2V2 T00110006
KSUU 
7nm S 
081140Z 16003KT 2 1/4SM BR CLR 03/01 A3028 RMK AO2A VIS 2 1/4V6 VIS 1/4 RWY03L VIS 1/2 RWY03R VIS 1/2 RWY03R/21L VIS 1/2 RWY21R SLP261 $
KEDU 
12nm NE 
081135Z AUTO 14004KT 10SM CLR 04/03 A3030 RMK AO1
KDWA 
13nm N 
081135Z AUTO 00000KT 2SM BR OVC003 03/03 A3030 RMK AO2
KAPC 
19nm SW 
081054Z AUTO 00000KT 1/4SM FG BKN001 OVC015 04/03 A3030 RMK AO2 SLP253 T00440033
TAF
KSUU 
7nm S 
080900Z 0809/0909 VRB06KT 1600 BR FEW030 SCT060 QNH3025INS TEMPO 0809/0815 0400 FG BECMG 0818/0819 18009KT 8000 BR BKN010 OVC030 QNH3016INS TEMPO 0820/0823 6000 -SHRA BKN008 BECMG 0822/0823 16010G15KT 6000 RA BKN008 OVC012 QNH3012INS TX11/0821Z TN04/0811Z
KAPC 
19nm SW 
080521Z 0806/0906 15005KT P6SM SKC TEMPO 0806/0810 1/2SM FG VV002 FM081000 13003KT 1/4SM FG VV001 FM081700 11004KT 5SM BR BKN008 BKN040 OVC130 FM082000 13007KT 5SM -RA BR BKN009 BKN015 OVC050 FM082130 16012KT 3SM +RA BR BKN015 OVC040 WS020/19040KT FM090130 25010KT 5SM SHRA BR BKN008 OVC010 FM090300 25005KT 6SM -SHRA BR BKN008 OVC012
NOTAMs
Click for the latest NOTAMs
NOTAMs are issued by the DoD/FAA and will open in a separate window not controlled by AirNav.

 

 
 

FBO, Fuel Providers, and Aircraft Ground Support

  
 Business Name 
 
 Contact 
 
 Services / Description 
 
Fuel Prices
 
Comments
  
 Solano County - Nut Tree Airport
707-469-4600
[web site]
[email]
Airport management, Aviation fuel, Aircraft parking (ramp or tiedown), Hangar leasing / sales, Passenger terminal and lounge, ...

More info about Solano County - Nut Tree Airport
EPIC
100LL Jet A
FS $6.25 $5.25 
SS $6.05 $5.25 
 Updated 30-Nov-2022
 
   1 read write
FS=Full service
SS=Self service
Update Fuel Prices
 

Would you like to see your business listed on this page?

 If your business provides an interesting product or service to pilots, flight crews, aircraft, or users of the Nut Tree Airport, you should consider listing it here.  To start the listing process, click on the button below
 
Add a business
 

Other Pages about Nut Tree Airport

www.flynuttree.com
Solano County
 
Update a link
 
Copyright © AirNav, LLC. All rights reserved. Privacy Policy  Contact